Austin, TX

1:19 AM CST on December 19, 2014 (GMT -0600)
Austin Bergstrom International | Change Station
CLOSE
Current Station
Airport
Location: Austin Bergstrom,
Elevation: 541 ft
Nearby Weather Stations
Active Advisory: Special Statement

Elev 541 ft 30.19 °N, 97.67 °W | Updated 8 minutes ago

Overcast
Overcast
50 °F
Feels Like 50 °F
N
7
Wind Variable Wind from North

Today
High -- | Low -- °F
--% Chance of Precip.
Yesterday
High -- | Low -- °F
Precip. -- in
7:21 AM 5:33 PM
Waning Crescent, 9% visible
Pressure 30.09 in
Visibility 3.0 miles
Clouds Mostly Cloudy 800 ft
Overcast 1300 ft
Dew Point 49 °F
Humidity 96%
Rainfall 0.16 in
Snow Depth Not available.
UV 0 out of 12
Pollen 8.10 out of 12
Air Quality Not available.
Flu Activity Not available.
SPECI KAUS 190711Z 35006KT 3SM -RA BR BKN008 OVC013 10/09 A3009 RMK AO2 SFC VIS 4 TSE05 TS MOV NE P0000 T01000094

More Conditions Fewer Conditions

Pressure 30.09 in
Visibility 3.0 miles
Clouds Mostly Cloudy 800 ft
Overcast 1300 ft
Dew Point 49 °F
Humidity 96%
Rainfall 0.16 in
Snow Depth Not available.
UV 0 out of 12
Pollen 8.10 out of 12
Air Quality Not available.
Flu Activity Not available.
SPECI KAUS 190711Z 35006KT 3SM -RA BR BKN008 OVC013 10/09 A3009 RMK AO2 SFC VIS 4 TSE05 TS MOV NE P0000 T01000094

More Conditions Fewer Conditions

Nowcast | as of 11:46 PM CST on December 18, 2014

Through 2 am...areas of light rain...rain showers and isolated thunderstorms will continue to develop and move north across south central Texas. Rainfall amounts will range from one tenth to three quarters of an inch. Locally heavier amounts to near one inch are possible in thunderstorms...along and to the east of Interstate 35. Rainfall coverage will become more widespread overnight.

×

10-Day Weather Forecast

Almanac

Astronomy

Dec. 19, 2014 Rise Set
Actual Time
Civil Twilight
Nautical Twilight
Astronomical Twilight
Moon
Length of Visible Light
Length of Day
Tomorrow will be .
, % of the Moon is Illuminated

Today's Extremes

State Highs State Lows

Community

WunderPhotos

Upload Photos

1,778,952 photos uploaded!

WunderBlogs® & News

Nearby

Air Quality

  Air Quality AQ Index Pollutant
Not available.

Snow Depth

Station Depth Elevation

Earthquake Activity

City Distance Mag. Time & Date
Minimum magnitude displayed is 2.5.

Coastal Water Temperatures

Place Temperature

Nearby Weather Stations